Wind_Speed
15 15 17 18 19 20 21 22 20 19 19 18 17 16 14 14 14 14 13 12 12 13 10 8 8 7 7 6 6 7 6 4 6 5 6 7 10 12 12 13 11 17 15
22 20 21 21 22 22 24 24 22 22 20 20 19 18 16 18 17 16 15 14 14 14 14 12 12 9 8 7 8 8 8 6 7 8 8 7 10 11 13 14 17 18 16
23 25 27 24 22 24 28 29 26 24 22 21 20 20 21 20 19 18 16 14 15 15 15 15 13 12 11 9 10 9 9 8 8 9 11 10 11 14 15 13 15 17 11
28 24 23 25 28 27 28 28 29 30 27 25 24 23 24 23 22 20 18 15 17 18 18 18 17 12 12 12 12 12 11 11 11 12 13 14 14 15 15 15 16 16 13
29 31 30 27 27 31 30 31 31 29 30 33 28 26 27 26 25 25 21 19 19 20 20 19 18 17 17 16 14 14 15 14 14 14 15 16 17 17 17 18 17 18 14
27 30 30 33 32 29 30 31 32 27 30 33 33 29 28 29 30 28 25 22 20 20 22 21 20 18 19 20 18 18 18 18 17 18 18 19 19 19 20 19 17 19 18
26 29 30 31 30 33 34 30 28 28 32 36 36 31 31 32 32 32 29 27 24 23 22 23 23 21 20 21 20 21 21 22 22 22 21 21 22 20 20 21 21 20 21
27 27 29 30 32 34 33 34 32 32 31 31 31 30 35 37 38 35 33 30 29 26 27 28 26 25 26 25 24 24 24 22 22 23 24 26 26 23 24 24 23 22 22
27 27 28 30 29 33 33 34 33 34 33 32 30 26 29 34 42 40 37 34 30 29 30 29 28 29 29 27 25 24 24 24 25 25 24 28 27 28 28 25 28 29 28
30 30 29 32 32 33 35 35 35 33 33 31 30 26 22 20 35 39 40 40 36 31 31 33 32 31 31 30 27 29 26 27 27 26 24 22 22 24 25 29 25 27 27
30 32 33 33 33 32 34 35 37 36 34 32 31 27 23 20 22 26 41 50 39 35 34 37 35 33 35 33 31 31 33 31 27 29 27 28 29 29 29 27 29 28 29
30 30 32 34 35 35 36 35 37 38 37 35 33 30 26 23 26 29 25 42 39 36 39 39 37 37 37 29 30 30 28 26 27 28 29 27 28 29 30 30 32 32 29
31 31 31 32 32 36 37 38 37 37 37 37 34 31 29 26 25 24 24 31 41 39 41 38 38 39 34 31 31 27 27 28 28 27 28 31 32 37 32 31 29 27 25
36 34 33 32 33 35 34 36 39 37 36 36 35 31 30 27 26 27 21 26 35 24 34 40 37 40 37 34 33 30 28 29 32 35 32 35 38 36 36 30 26 24 24
31 36 35 34 32 31 33 32 33 34 33 34 35 31 31 31 29 30 30 31 29 31 44 37 40 37 37 33 35 29 27 33 36 40 37 39 36 38 24 20 26 27 23
22 22 24 26 26 26 28 27 26 27 30 31 31 29 30 30 32 32 32 22 29 26 22 21 25 33 36 34 34 28 34 33 45 34 36 40 35 24 22 23 23 19 16
13 12 17 19 17 18 20 25 23 24 27 29 29 28 30 30 33 30 29 29 23 21 30 36 34 33 30 30 32 34 38 35 40 40 36 23 17 17 19 19 15 14 14
10 10 11 14 13 14 13 15 19 23 23 26 28 32 31 33 31 28 28 27 26 27 27 25 24 29 37 40 31 30 35 39 38 27 18 20 20 18 16 15 15 16 16
15 14 11 15 14 14 13 16 15 15 22 25 29 30 32 35 33 36 38 31 28 29 28 25 31 32 36 38 35 30 24 18 16 19 18 17 15 15 17 17 18 17 17
21 18 15 11 12 12 12 11 17 24 18 17 19 25 27 24 23 27 29 31 30 29 25 23 20 15 7 5 7 13 16 18 17 17 16 16 17 18 19 18 18 17 17
17 4 6 5 3 2 5 7 8 11 10 8 16 22 35 27 17 12 10 7 6 5 4 1 3 6 10 15 16 16 16 16 17 18 19 20 20 20 19 18 18 17 17
6 6 4 1 5 4 3 5 5 10 10 8 8 8 8 8 9 9 8 8 9 7 6 5 5 6 10 13 16 16 17 18 19 20 21 21 20 19 18 18 18 19 19
1 2 2 1 3 5 5 6 6 8 9 8 8 9 9 9 8 8 8 7 5 3 2 4 4 6 8 12 15 16 18 18 19 20 21 21 20 20 19 20 21 22 22
5 5 6 5 5 7 9 7 6 6 6 6 5 5 5 5 5 5 5 5 6 7 8 9 11 13 14 14 14 14 15 16 17 18 19 20 20 20 22 22 23 24 24
11 10 11 10 10 12 11 9 9 8 7 7 7 7 6 6 7 7 8 10 11 12 13 14 15 16 17 17 17 16 16 16 16 17 20 22 24 24 25 26 26 27 30
12 13 14 14 13 15 14 13 12 13 12 11 11 10 10 10 11 13 15 16 17 18 19 20 21 22 22 22 22 22 22 23 22 23 25 27 28 30 30 30 32 34 36
Wind_Direction
233 242 242 238 244 242 240 241 232 235 241 240 230 226 230 219 229 227 214 211 226 232 241 249 249 241 251 263 273 279 276 291 288 298 307 311 309 308 335 327 311 275 260
239 241 248 249 244 247 248 245 243 241 243 242 236 236 233 221 222 232 226 218 225 232 237 247 251 251 252 264 270 272 283 290 293 298 303 313 312 315 330 324 314 348 257
244 244 245 250 254 250 251 253 247 241 239 245 241 237 235 231 226 226 230 227 230 230 240 246 247 247 248 249 261 273 279 289 294 291 297 302 302 305 310 318 328 336 338
260 255 252 257 248 250 251 255 256 250 243 235 236 238 240 234 239 232 231 232 236 233 237 238 236 232 242 254 261 268 273 274 279 278 286 291 294 294 300 306 313 323 317
260 260 259 257 257 248 250 251 256 252 254 253 239 234 239 241 238 239 234 229 236 240 241 239 235 237 241 250 261 260 266 271 277 281 284 286 289 292 294 300 306 312 295
257 259 262 260 259 260 257 256 260 271 256 257 254 246 240 243 243 241 240 234 230 237 242 245 242 238 242 245 253 257 264 272 277 281 283 283 285 287 288 292 294 305 296
254 253 252 258 258 257 261 261 262 264 238 256 251 251 251 243 240 243 243 243 242 238 241 247 248 249 250 253 256 260 267 274 280 284 282 282 282 284 287 290 289 292 287
264 261 251 249 254 258 259 261 261 262 262 279 259 263 252 243 243 239 240 242 245 244 244 245 247 251 255 256 260 266 270 275 278 280 282 285 282 277 290 292 282 286 291
264 268 258 252 252 260 262 264 261 260 263 261 271 287 302 246 230 238 242 243 243 245 247 248 250 251 255 258 258 264 272 277 276 281 285 287 282 286 286 282 288 286 279
263 263 261 258 261 258 258 260 263 262 259 258 260 264 276 293 233 235 240 243 246 242 247 247 249 252 254 255 255 269 265 272 276 277 280 288 292 289 282 286 285 289 285
261 260 261 263 262 258 259 257 256 260 261 259 259 262 262 260 275 265 248 237 237 239 246 249 247 251 252 251 266 268 272 264 271 274 275 280 285 286 284 284 284 293 291
265 262 261 262 262 260 255 257 255 253 257 257 254 254 253 259 262 277 283 240 241 243 244 245 251 251 261 259 258 274 263 257 267 277 278 279 291 288 291 287 286 282 287
269 265 262 260 264 263 257 255 254 251 248 251 251 251 249 246 260 272 268 242 239 245 243 246 251 258 250 253 262 267 261 263 270 274 280 280 278 284 284 289 286 285 288
273 270 269 263 269 267 264 257 252 249 245 246 249 249 247 247 251 254 259 253 255 244 253 247 247 250 254 244 259 262 262 257 270 245 270 262 275 277 273 281 284 287 289
277 269 269 272 271 262 259 256 247 245 244 242 243 245 245 244 246 249 254 257 255 239 250 250 247 250 235 242 250 259 259 260 262 271 269 291 274 275 268 282 294 288 281
275 273 270 268 265 263 257 246 240 240 238 238 238 239 242 243 242 244 247 258 238 251 251 230 232 234 238 250 249 245 266 268 261 265 271 272 269 268 285 284 277 273 276
273 280 283 274 271 272 261 249 247 241 240 237 238 233 235 240 241 243 243 250 238 238 235 258 246 240 241 235 247 256 262 251 264 269 264 260 291 290 270 265 270 273 277
267 285 285 269 264 272 268 249 243 240 236 232 226 230 239 238 237 232 238 241 239 239 246 236 238 234 234 232 246 255 261 261 257 256 270 278 271 266 264 268 272 275 276
278 280 260 273 268 274 263 244 250 243 240 245 242 237 229 233 238 232 233 225 240 246 241 243 241 238 233 238 245 246 248 250 267 273 264 261 262 266 269 272 272 272 283
272 284 263 270 267 282 320 290 252 233 244 256 239 230 239 231 228 217 231 233 230 235 239 232 235 227 232 246 248 255 261 260 262 262 262 264 265 267 268 269 271 282 291
258 182 280 264 275 300 85 63 14 174 175 187 201 210 219 217 197 195 195 150 119 87 66 39 238 239 248 253 256 256 257 259 261 263 264 265 265 267 266 270 280 284 283
155 193 209 131 170 186 161 110 100 85 93 121 123 120 112 122 127 144 154 158 154 157 164 194 219 235 252 259 260 262 264 264 264 263 262 265 266 262 267 274 276 276 282
216 184 206 248 159 145 144 134 133 129 125 125 124 127 130 140 153 162 167 165 180 197 252 265 279 295 296 287 282 276 270 267 263 263 263 264 263 267 269 270 273 280 292
246 264 266 268 248 186 162 162 163 165 166 168 184 193 193 198 202 204 207 222 248 263 273 282 290 294 299 300 299 291 285 279 276 273 269 267 268 269 269 272 275 284 292
259 252 247 247 228 213 204 199 206 211 214 224 224 224 226 226 235 243 250 258 264 273 280 283 284 291 297 299 296 295 294 289 285 281 277 274 271 267 266 271 275 282 292
263 258 254 249 232 222 224 223 229 230 226 223 221 227 237 250 260 270 276 280 284 285 287 288 289 290 292 293 294 292 288 287 287 285 280 275 273 272 273 274 279 286 291
Height
5878 5879 5880 5881 5883 5884 5885 5886 5888 5889 5892 5893 5895 5896 5897 5897 5898 5901 5902 5902 5904 5904 5904 5905 5906 5907 5906 5907 5908 5908 5908 5908 5908 5907 5907 5906 5905 5902 5902 5901 5899 5898 5898
5875 5875 5876 5877 5878 5879 5880 5881 5883 5885 5887 5889 5890 5892 5894 5895 5895 5897 5898 5898 5900 5901 5902 5902 5903 5903 5904 5904 5906 5906 5906 5906 5906 5905 5905 5904 5903 5901 5900 5898 5896 5894 5891
5870 5871 5872 5873 5874 5874 5875 5876 5879 5879 5880 5883 5885 5887 5889 5892 5893 5894 5894 5895 5895 5897 5898 5899 5901 5901 5901 5901 5902 5903 5903 5903 5903 5903 5902 5901 5900 5899 5898 5896 5894 5892 5890
5864 5865 5867 5867 5868 5869 5868 5871 5873 5875 5875 5875 5877 5880 5883 5885 5889 5890 5890 5891 5893 5894 5895 5897 5898 5898 5899 5899 5899 5899 5900 5900 5900 5900 5899 5898 5897 5896 5895 5893 5892 5891 5889
5857 5858 5859 5860 5862 5862 5863 5862 5865 5868 5872 5874 5873 5873 5876 5880 5881 5884 5885 5886 5890 5891 5892 5893 5894 5894 5895 5895 5896 5895 5896 5896 5896 5895 5895 5895 5893 5892 5891 5890 5889 5888 5887
5851 5851 5851 5853 5854 5855 5856 5857 5858 5860 5865 5869 5869 5869 5869 5873 5877 5877 5880 5883 5883 5886 5888 5888 5890 5889 5890 5891 5891 5891 5891 5891 5891 5891 5889 5889 5888 5887 5887 5886 5885 5884 5884
5844 5844 5844 5844 5845 5846 5846 5849 5852 5853 5845 5859 5859 5860 5864 5865 5867 5872 5873 5875 5878 5879 5882 5883 5884 5884 5885 5886 5886 5887 5887 5887 5886 5885 5884 5884 5883 5882 5882 5882 5880 5879 5878
5835 5835 5836 5837 5837 5836 5838 5840 5843 5844 5847 5847 5848 5848 5853 5856 5859 5862 5864 5867 5870 5872 5875 5876 5876 5877 5878 5878 5880 5880 5881 5880 5880 5879 5878 5878 5878 5877 5876 5875 5874 5873 5872
5827 5827 5827 5829 5829 5828 5828 5829 5833 5835 5838 5838 5837 5839 5840 5838 5846 5853 5854 5858 5861 5863 5866 5869 5869 5870 5871 5872 5872 5872 5873 5874 5873 5873 5872 5871 5871 5871 5869 5868 5867 5866 5864
5819 5819 5819 5820 5820 5821 5820 5822 5823 5825 5829 5832 5833 5835 5833 5831 5837 5843 5845 5848 5851 5853 5856 5858 5860 5862 5863 5863 5865 5865 5865 5866 5866 5866 5866 5865 5864 5863 5862 5861 5859 5858 5858
5811 5811 5810 5811 5812 5813 5812 5813 5814 5816 5818 5821 5822 5824 5827 5829 5831 5833 5832 5834 5838 5841 5846 5849 5852 5853 5854 5855 5856 5857 5857 5857 5858 5858 5857 5857 5857 5855 5854 5853 5852 5851 5849
5800 5801 5800 5800 5801 5802 5803 5804 5805 5807 5809 5811 5814 5816 5818 5820 5821 5821 5820 5824 5828 5832 5836 5839 5842 5844 5845 5847 5848 5848 5848 5849 5849 5849 5848 5848 5848 5847 5847 5845 5844 5843 5841
5789 5790 5790 5790 5791 5790 5792 5794 5795 5797 5800 5802 5804 5807 5808 5810 5813 5814 5813 5814 5819 5823 5826 5829 5831 5833 5836 5838 5840 5840 5840 5840 5840 5839 5840 5839 5839 5840 5838 5837 5835 5835 5833
5778 5778 5778 5779 5780 5779 5780 5781 5784 5787 5789 5791 5793 5797 5799 5801 5804 5804 5806 5807 5811 5811 5811 5818 5822 5825 5826 5827 5831 5832 5831 5831 5832 5830 5831 5832 5832 5830 5829 5828 5828 5826 5826
5766 5767 5767 5767 5768 5767 5768 5769 5771 5774 5777 5781 5783 5787 5789 5793 5796 5796 5797 5798 5799 5796 5803 5805 5809 5813 5816 5818 5821 5822 5823 5823 5823 5822 5819 5822 5822 5820 5818 5820 5819 5820 5818
5758 5759 5758 5758 5759 5758 5759 5760 5762 5764 5766 5769 5773 5777 5780 5783 5786 5787 5789 5790 5788 5786 5793 5797 5800 5802 5805 5808 5810 5811 5813 5814 5813 5813 5813 5814 5812 5812 5813 5813 5812 5812 5812
5753 5753 5752 5752 5752 5753 5751 5752 5754 5756 5758 5760 5764 5768 5771 5774 5777 5779 5782 5783 5784 5786 5789 5791 5793 5793 5796 5799 5801 5803 5804 5805 5806 5805 5804 5803 5804 5805 5805 5806 5806 5807 5806
5749 5750 5749 5750 5749 5748 5746 5746 5747 5749 5751 5754 5758 5761 5764 5766 5769 5771 5774 5776 5777 5779 5781 5783 5784 5786 5788 5789 5791 5793 5794 5794 5795 5794 5794 5796 5798 5798 5799 5799 5800 5801 5800
5746 5747 5747 5747 5746 5744 5743 5743 5744 5745 5747 5748 5751 5753 5755 5759 5761 5763 5765 5768 5771 5772 5774 5775 5778 5779 5781 5781 5782 5783 5784 5786 5789 5790 5791 5791 5792 5793 5794 5794 5795 5796 5795
5743 5744 5744 5743 5742 5742 5740 5740 5741 5742 5743 5744 5745 5747 5750 5754 5755 5757 5760 5761 5764 5767 5768 5769 5770 5771 5772 5774 5777 5780 5781 5783 5784 5785 5786 5787 5787 5787 5788 5789 5790 5790 5789
5739 5742 5742 5741 5740 5741 5740 5739 5737 5735 5739 5742 5743 5746 5746 5749 5750 5753 5757 5758 5760 5761 5764 5767 5769 5770 5772 5775 5776 5777 5778 5779 5780 5781 5781 5782 5782 5782 5783 5784 5784 5784 5784
5741 5742 5741 5740 5740 5740 5741 5741 5741 5738 5741 5744 5745 5746 5748 5749 5752 5756 5758 5760 5761 5763 5764 5767 5767 5768 5770 5771 5771 5771 5772 5773 5774 5775 5775 5775 5776 5777 5777 5778 5777 5777 5777
5742 5742 5741 5741 5741 5741 5741 5742 5743 5744 5745 5746 5747 5748 5751 5754 5756 5757 5759 5760 5762 5763 5764 5765 5765 5766 5766 5767 5766 5766 5766 5767 5767 5767 5767 5768 5769 5769 5770 5771 5771 5769 5767
5742 5743 5743 5743 5743 5742 5741 5743 5745 5746 5748 5749 5750 5752 5753 5755 5756 5757 5758 5759 5761 5761 5762 5763 5763 5763 5763 5762 5762 5761 5761 5762 5762 5762 5762 5762 5762 5763 5764 5763 5763 5761 5759
5739 5740 5740 5742 5743 5744 5744 5744 5745 5746 5748 5750 5751 5752 5753 5754 5755 5756 5757 5758 5758 5759 5759 5759 5760 5759 5759 5758 5757 5757 5757 5756 5755 5755 5755 5756 5756 5757 5756 5755 5754 5752 5750
5737 5737 5738 5739 5740 5742 5743 5743 5745 5746 5747 5748 5749 5751 5752 5752 5753 5754 5754 5754 5754 5755 5755 5754 5753 5752 5752 5752 5752 5751 5750 5749 5749 5749 5749 5749 5748 5747 5746 5745 5744 5742 5739